CAPE
138 142 231 261 221 338 359 305 546 654 898 1126 1089 1160 1435 1274 1249 1085 1324 1598 1321 1477 1687 2845 2065 2073 2292 2128 2181 2089 2473 2443 2148
99 223 260 217 263 269 361 331 507 691 877 1022 1126 1164 1759 1627 1116 892 1066 1350 1618 1624 1857 2141 1903 2040 2062 2043 2036 2064 2289 2212 2511
115 227 319 306 338 471 468 386 571 728 931 1040 1160 1323 1626 1772 1139 862 697 905 1435 1657 1673 1854 2007 1898 2000 2172 2222 2242 2279 2125 2378
213 236 310 420 299 529 659 608 467 950 1034 1025 1053 1223 1543 1626 1206 931 1047 994 1156 1391 1650 1775 1774 1909 2039 2167 2275 2243 2373 2406 2260
309 255 357 420 356 410 392 504 643 1025 1254 1153 1143 1055 1384 1214 1137 1310 1386 1183 802 970 1260 1473 1651 1799 1673 1704 1984 1993 2083 1960 1602
350 352 377 449 330 419 543 281 173 283 343 411 638 803 824 682 729 864 1257 1581 1769 1413 1597 1784 1503 1354 1397 1455 1666 1938 1947 2072 1772
237 225 180 193 282 330 241 205 156 142 144 178 220 272 174 300 317 313 264 643 1669 1983 2120 1954 1606 1393 1199 913 995 1283 1512 1851 2002
93 106 125 87 96 185 148 106 115 77 78 83 98 98 83 87 198 137 255 312 633 1614 2110 2002 1695 1561 1276 848 712 646 965 1234 1489
239 186 186 132 166 139 99 138 144 77 68 95 101 108 89 60 84 85 73 153 343 579 968 1325 1481 1567 1787 1984 1337 986 769 730 1137
239 129 139 99 81 95 175 28 53 36 30 23 3 45 60 76 29 92 79 123 205 356 449 538 656 613 608 637 693 819 1062 1142 1973
141 92 160 148 152 124 159 85 80 47 33 27 0 9 1 51 35 72 132 105 120 125 82 112 148 193 281 358 315 333 399 535 1276
245 193 235 187 234 162 201 186 143 66 89 64 8 65 97 81 91 75 125 112 153 32 36 40 85 107 121 191 127 129 134 146 393
280 127 135 117 160 227 226 165 154 122 154 104 145 143 145 188 196 214 235 137 60 7 25 21 37 37 39 28 36 33 48 61 63
244 103 105 101 138 151 191 190 109 155 155 160 237 174 227 240 204 190 238 221 170 109 81 73 76 98 72 10 0 0 8 19 12
177 97 92 33 116 151 167 165 172 114 157 184 197 198 174 162 191 214 215 168 181 87 26 28 57 33 20 19 25 21 4 1 0
70 78 48 84 47 84 41 55 55 98 35 73 85 69 117 99 31 59 47 63 16 24 1 0 0 0 0 0 0 0 0 0 0
13 0 0 0 0 2 5 0 0 0 0 0 0 0 0 0 0 0 0 0 0 0 0 0 0 0 0 0 0 0 0 0 0
41 37 31 4 0 0 0 0 0 0 0 0 0 0 0 0 0 0 0 0 0 0 0 0 0 0 0 0 0 0 0 0 0
7 6 20 42 9 15 8 0 0 0 0 0 0 0 0 0 0 0 0 0 0 0 0 0 0 0 0 0 0 0 0 0 0
0 0 0 4 31 52 23 9 2 0 0 0 0 0 0 0 0 0 0 0 0 0 0 0 0 0 0 0 0 0 0 0 0
CIN
-43 -50 -46 -60 -71 -43 -45 -68 -57 -42 -28 -18 -20 -24 -18 -34 -43 -34 -27 -15 -10 -3 -2 -3 -5 -11 -11 -17 -14 -17 -18 -9 -11
-53 -32 -41 -81 -67 -63 -61 -83 -67 -51 -40 -30 -16 -17 -12 -17 -43 -63 -39 -34 -23 -7 -6 -6 -9 -9 -10 -13 -15 -17 -19 -5 -9
-40 -22 -27 -49 -61 -59 -76 -99 -54 -52 -49 -41 -26 -16 -13 -14 -34 -57 -75 -59 -27 -18 -22 -17 -12 -12 -12 -9 -9 -12 -16 -11 -10
-77 -45 -44 -34 -90 -56 -56 -80 -101 -39 -42 -42 -35 -20 -16 -19 -32 -42 -41 -45 -49 -38 -25 -17 -19 -16 -11 -9 -7 -6 -6 -6 -6
-69 -43 -23 -37 -59 -52 -64 -66 -59 -25 -1 -20 -30 -12 -9 -17 -25 -29 -21 -40 -60 -66 -56 -38 -31 -23 -26 -27 -14 -14 -6 -5 -4
-93 -71 -43 -35 -55 -31 -23 -60 -111 -70 -74 -46 -36 -31 -18 -24 -26 -29 -13 -10 -13 -27 -25 -29 -52 -62 -49 -27 -13 -12 -6 -3 -1
-125 -89 -98 -74 -44 -47 -58 -16 -33 -38 -75 -56 -47 -64 -51 -23 -10 -47 -33 -68 -9 -9 -10 -19 -39 -54 -60 -65 -46 -23 -12 -6 -3
-87 -157 -102 -157 -113 -59 -53 -20 -3 -42 -60 -71 -44 -41 -32 -31 -21 -98 -90 -100 -71 -12 -5 -10 -20 -29 -37 -67 -72 -42 -30 -21 -10
-112 -97 -72 -56 -19 -23 -42 -4 -0 -0 -0 -14 -0 -5 -4 -0 -62 -89 -126 -105 -80 -54 -24 -26 -23 -17 -5 -1 -13 -21 -29 -31 -21
-108 -102 -92 -100 -65 -22 -15 -25 -3 -1 -1 -0 -2 -3 -1 -0 -43 -30 -69 -56 -68 -49 -40 -46 -48 -57 -59 -49 -46 -32 -19 -26 -7
-132 -126 -103 -100 -49 -26 -13 -18 -3 -7 -45 -0 -0 -2 -1 -1 -19 -12 -61 -32 -41 -50 -58 -86 -96 -102 -70 -53 -43 -65 -64 -40 -20
-79 -70 -39 -49 -15 -18 -0 -0 -0 -4 -0 -0 -92 -44 -26 -9 -6 -52 -49 -21 -1 -9 -32 -38 -99 -89 -76 -52 -59 -48 -52 -61 -60
-50 -90 -55 -64 -11 -0 -0 -0 -0 -0 -0 -5 -6 -2 -0 -0 -0 -6 -2 -6 -34 -65 -12 -26 -66 -54 -128 -92 -38 -41 -31 -14 -74
-13 -78 -72 -48 -23 -0 -1 -0 -0 -3 -0 -0 -0 -5 -0 -0 -0 -8 -0 -0 -5 -8 -21 -44 -36 -33 -26 -54 -0 -0 -19 -24 -20
-9 -58 -45 -60 -8 -0 -0 -0 -0 -4 -7 -0 -0 -0 -4 -4 -2 -0 -0 -0 -0 -4 -49 -27 -7 -9 -25 -4 -15 -20 -22 -11 -0
-14 -24 -40 -15 -15 -1 -30 -18 -14 -2 -20 -28 -21 -18 -16 -16 -58 -21 -76 -56 -63 -31 -10 -0 -0 -0 -0 -0 -0 -0 -0 -0 -0
-1 -0 -0 -0 -0 -0 -48 -0 -0 -0 -0 -0 -0 -0 -0 -0 -0 -0 -0 -0 -0 -0 -0 -0 -0 -0 -0 -0 -0 -0 -0 -0 -0
-0 -0 -0 -2 -1 -0 -0 -0 -0 -0 -0 -0 -0 -0 -0 -0 -0 -0 -0 -0 -0 -0 -0 -0 -0 -0 -0 -0 -0 -0 -0 -0 -0
-3 -0 -0 -0 -1 -2 -6 -0 -0 -0 -0 -0 -0 -0 -0 -0 -0 -0 -0 -0 -0 -0 -0 -0 -0 -0 -0 -0 -0 -0 -0 -0 -0
-0 -0 -0 -0 -1 -0 -4 -1 -0 -0 -0 -0 -0 -0 -0 -0 -0 -0 -0 -0 -0 -0 -0 -0 -0 -0 -0 -0 -0 -0 -0 -0 -0
Wind_Speed
21 11 15 18 16 16 14 15 13 13 13 13 13 12 13 12 9 12 13 11 11 9 10 11 9 9 9 10 11 10 10 10 9
nan 19 21 21 22 22 17 21 16 15 16 14 13 11 12 11 12 12 13 12 13 13 12 12 10 9 7 8 10 11 11 11 10
20 18 24 23 23 26 25 26 22 17 16 14 12 12 13 14 15 15 15 15 13 13 12 11 10 9 7 8 8 9 10 11 10
17 21 16 23 26 30 30 30 28 25 21 18 15 14 16 17 15 17 17 17 15 15 15 13 12 11 10 8 8 8 9 10 11
13 13 10 5 14 27 28 33 31 31 29 24 21 22 23 23 24 21 20 20 20 17 13 15 13 12 10 7 8 9 10 10 11
15 19 9 7 7 7 22 31 42 42 41 37 33 34 31 30 29 27 25 22 21 18 18 16 15 13 12 12 12 10 11 11 11
26 27 16 7 5 9 16 18 34 40 48 47 39 41 37 38 37 35 33 30 23 20 18 18 18 16 16 16 15 14 13 12 13
nan 34 17 nan nan 14 20 23 24 nan nan nan nan nan nan nan 44 40 38 36 33 27 24 24 22 21 20 20 19 18 15 14 14
27 20 22 23 26 22 nan 26 23 nan nan nan 45 49 nan nan nan nan nan 42 38 37 34 34 33 29 24 22 26 30 26 17 17
33 26 21 nan nan nan 25 nan nan nan nan nan nan nan nan nan nan nan nan 43 42 41 40 40 40 39 36 33 33 33 33 28 19
40 nan 24 22 25 29 30 nan nan nan nan nan nan nan nan nan nan nan 50 43 37 38 nan 47 45 43 40 36 38 38 36 31 29
46 45 39 37 35 38 36 34 32 nan nan nan nan nan nan nan nan nan 40 56 49 nan nan nan nan 47 43 41 42 38 37 39 39
35 36 35 36 37 35 35 34 34 33 34 25 23 17 21 22 19 24 28 30 nan nan nan nan nan nan nan nan nan nan nan nan nan
39 37 39 39 39 37 39 32 35 35 31 31 30 24 11 18 24 23 30 30 30 31 nan nan nan nan nan nan nan nan nan nan nan
42 nan nan nan 42 40 40 38 42 39 37 36 38 27 25 23 24 29 29 25 24 nan nan nan nan nan nan nan nan nan nan nan nan
nan nan nan nan nan nan nan nan nan nan nan nan nan nan 27 nan nan nan nan nan nan nan nan nan nan nan nan nan nan nan nan nan nan
nan nan nan nan nan nan nan nan nan nan nan nan nan nan nan nan nan nan nan nan nan nan nan nan nan nan nan nan nan nan nan nan nan
nan nan nan nan nan nan nan nan nan nan nan nan nan nan nan nan nan nan nan nan nan nan nan nan nan nan nan nan nan nan nan nan nan
nan nan nan nan nan nan nan nan nan nan nan nan nan nan nan nan nan nan nan nan nan nan nan nan nan nan nan nan nan nan nan nan nan
nan nan nan nan nan nan nan nan nan nan nan nan nan nan nan nan nan nan nan nan nan nan nan nan nan nan nan nan nan nan nan nan nan
Wind_Direction
320 274 238 223 208 220 209 229 210 206 205 192 190 187 180 185 187 190 195 192 183 192 193 197 209 207 208 201 199 188 182 178 179
nan 307 256 231 229 225 226 234 236 213 216 202 199 191 193 201 204 199 199 204 190 195 198 199 195 203 205 202 202 197 191 186 181
317 306 286 254 225 228 226 219 228 229 230 224 212 204 199 203 214 209 204 207 203 199 201 203 203 199 198 215 210 204 204 201 207
304 309 307 239 213 218 224 226 223 231 230 231 230 222 211 208 220 226 222 216 211 211 212 206 205 208 205 204 218 221 227 227 217
279 293 320 340 238 206 221 230 232 229 227 226 226 234 230 220 216 219 223 221 220 224 223 221 211 216 216 202 220 226 237 238 234
254 267 252 253 280 249 222 244 238 230 231 230 232 238 235 231 224 225 223 225 225 222 230 225 225 223 228 224 215 229 233 237 249
249 267 213 232 291 284 265 289 267 252 235 235 233 240 236 233 226 222 224 222 222 230 236 237 244 245 248 226 232 232 231 234 239
nan 239 268 nan nan 280 287 275 280 nan nan nan nan nan nan nan 233 227 225 228 230 230 240 244 244 248 246 246 235 235 235 235 229
266 266 269 275 273 285 nan 281 270 nan nan nan 225 229 nan nan nan nan nan 226 235 238 241 245 244 243 241 245 240 230 236 234 239
260 257 260 nan nan nan 274 nan nan nan nan nan nan nan nan nan nan nan nan 227 235 239 241 244 246 246 245 245 245 242 242 236 241
263 nan 248 252 260 267 265 nan nan nan nan nan nan nan nan nan nan nan 229 230 234 242 nan 246 244 244 244 245 243 239 238 235 245
264 267 266 259 255 267 269 263 267 nan nan nan nan nan nan nan nan nan 228 224 223 nan nan nan nan 242 243 246 244 238 240 245 246
258 257 256 255 253 256 260 258 260 266 262 261 243 241 219 193 202 208 217 223 nan nan nan nan nan nan nan nan nan nan nan nan nan
245 249 257 253 249 245 249 250 257 251 250 260 251 247 186 189 204 223 219 223 228 232 nan nan nan nan nan nan nan nan nan nan nan
251 nan nan nan 245 240 244 245 249 249 243 246 245 225 206 212 217 224 227 233 236 nan nan nan nan nan nan nan nan nan nan nan nan
nan nan nan nan nan nan nan nan nan nan nan nan nan nan 232 nan nan nan nan nan nan nan nan nan nan nan nan nan nan nan nan nan nan
nan nan nan nan nan nan nan nan nan nan nan nan nan nan nan nan nan nan nan nan nan nan nan nan nan nan nan nan nan nan nan nan nan
nan nan nan nan nan nan nan nan nan nan nan nan nan nan nan nan nan nan nan nan nan nan nan nan nan nan nan nan nan nan nan nan nan
nan nan nan nan nan nan nan nan nan nan nan nan nan nan nan nan nan nan nan nan nan nan nan nan nan nan nan nan nan nan nan nan nan
nan nan nan nan nan nan nan nan nan nan nan nan nan nan nan nan nan nan nan nan nan nan nan nan nan nan nan nan nan nan nan nan nan